| time (UTC) | temp F | wind direction | speed knots | gust knots | rain 1hr in | rain 24hr in | rain mn in | humidity % | barometer mb |
| 20260505191039 | 55 | 19 | 0.0 | 2.6 | 0.00 | 0.03 | 0.03 | 87 | 1011.7 |
| 20260505190144 | 55 | 0.0 | 0.9 | 0.00 | 0.03 | 0.03 | 87 | 1011.4 | |
| 20260505185024 | 55 | 0.0 | 0.0 | 0.00 | 0.03 | 0.03 | 87 | 1011.4 | |
| 20260505184049 | 55 | 0.0 | 0.0 | 0.00 | 0.03 | 0.03 | 86 | 1011.4 | |
| 20260505183113 | 55 | 0.0 | 0.0 | 0.00 | 0.03 | 0.03 | 86 | 1011.1 | |
| 20260505182034 | 55 | 70 | 0.0 | 0.9 | 0.00 | 0.03 | 0.03 | 86 | 1011.2 |
| 20260505181058 | 55 | 83 | 0.9 | 1.7 | 0.00 | 0.03 | 0.03 | 86 | 1011.1 |
| 20260505180018 | 56 | 0.0 | 0.0 | 0.00 | 0.03 | 0.03 | 82 | 1011.1 | |
| 20260505175123 | 55 | 297 | 0.0 | 1.7 | 0.00 | 0.03 | 0.03 | 83 | 1010.9 |
| 20260505174107 | 55 | 5 | 0.0 | 0.9 | 0.00 | 0.03 | 0.03 | 86 | 1011.0 |
| 20260505173027 | 56 | 325 | 0.9 | 0.9 | 0.00 | 0.03 | 0.03 | 84 | 1010.9 |
| 20260505172051 | 55 | 333 | 0.9 | 1.7 | 0.00 | 0.03 | 0.03 | 82 | 1010.9 |
| 20260505171116 | 56 | 317 | 0.9 | 2.6 | 0.00 | 0.03 | 0.03 | 84 | 1010.9 |
| 20260505170037 | 56 | 278 | 0.9 | 5.2 | 0.00 | 0.03 | 0.03 | 84 | 1010.8 |
| 20260505165100 | 56 | 342 | 0.0 | 0.9 | 0.00 | 0.03 | 0.03 | 84 | 1011.0 |
| 20260505164022 | 56 | 45 | 0.9 | 2.6 | 0.01 | 0.03 | 0.03 | 81 | 1011.1 |
| 20260505163046 | 56 | 16 | 0.9 | 2.6 | 0.03 | 0.03 | 0.03 | 81 | 1011.1 |
| 20260505162110 | 56 | 337 | 0.9 | 2.6 | 0.03 | 0.03 | 0.03 | 85 | 1011.2 |
| 20260505161110 | 55 | 346 | 1.7 | 2.6 | 0.03 | 0.03 | 0.03 | 84 | 1011.2 |
| 20260505153104 | 60 | 334 | 3.5 | 9.6 | 0.00 | 0.00 | 0.00 | 59 | 1011.1 |
| 20260505152105 | 61 | 320 | 4.3 | 11.3 | 0.00 | 0.00 | 0.00 | 53 | 1010.4 |
| 20260505151129 | 62 | 304 | 3.5 | 13.9 | 0.00 | 0.00 | 0.00 | 53 | 1010.0 |
| 20260505150113 | 65 | 104 | 0.9 | 6.1 | 0.00 | 0.00 | 0.00 | 39 | 1009.5 |
| 20260505130127 | 65 | 149 | 4.3 | 8.7 | 0.00 | 0.00 | 0.00 | 40 | 1009.8 |
| 20260505124032 | 65 | 108 | 3.5 | 8.7 | 0.00 | 0.00 | 0.00 | 39 | 1009.6 |
| 20260505123056 | 65 | 116 | 5.2 | 11.3 | 0.00 | 0.00 | 0.00 | 39 | 1009.7 |
| 20260505122017 | 65 | 91 | 4.3 | 11.3 | 0.00 | 0.00 | 0.00 | 40 | 1009.7 |
| 20260505121041 | 65 | 131 | 5.2 | 12.2 | 0.00 | 0.00 | 0.00 | 39 | 1009.7 |
| 20260505120105 | 65 | 126 | 5.2 | 13.0 | 0.00 | 0.00 | 0.00 | 39 | 1009.8 |
| 20260505115025 | 66 | 121 | 4.3 | 13.9 | 0.00 | 0.00 | 0.00 | 39 | 1009.8 |
| 20260505114050 | 65 | 124 | 4.3 | 11.3 | 0.00 | 0.00 | 0.00 | 39 | 1009.9 |
| 20260505113114 | 66 | 127 | 7.0 | 12.2 | 0.00 | 0.00 | 0.00 | 40 | 1010.0 |
| 20260505112035 | 66 | 134 | 6.1 | 13.0 | 0.00 | 0.00 | 0.00 | 40 | 1010.0 |
| 20260505111059 | 67 | 151 | 4.3 | 11.3 | 0.00 | 0.00 | 0.00 | 39 | 1010.1 |
| 20260505102053 | 64 | 96 | 6.1 | 13.9 | 0.00 | 0.00 | 0.00 | 42 | 1010.4 |
| 20260505101118 | 64 | 180 | 4.3 | 11.3 | 0.00 | 0.00 | 0.00 | 43 | 1010.5 |
| 20260505100038 | 66 | 96 | 5.2 | 13.9 | 0.00 | 0.00 | 0.00 | 41 | 1010.5 |
| 20260505095103 | 65 | 119 | 3.5 | 13.9 | 0.00 | 0.00 | 0.00 | 43 | 1010.6 |
| 20260505094023 | 65 | 137 | 6.1 | 16.5 | 0.00 | 0.00 | 0.00 | 42 | 1010.7 |
| 20260505093047 | 63 | 347 | 2.6 | 7.8 | 0.00 | 0.00 | 0.00 | 45 | 1011.0 |
| 20260505092111 | 63 | 36 | 1.7 | 6.1 | 0.00 | 0.00 | 0.00 | 47 | 1011.2 |
| 20260505091032 | 60 | 109 | 1.7 | 6.1 | 0.00 | 0.00 | 0.00 | 53 | 1011.4 |
| 20260505090057 | 59 | 44 | 0.0 | 1.7 | 0.00 | 0.00 | 0.00 | 60 | 1011.5 |
| 20260505085019 | 58 | 0.0 | 1.7 | 0.00 | 0.00 | 0.00 | 64 | 1011.6 | |
| 20260505084122 | 57 | 83 | 0.0 | 0.9 | 0.00 | 0.00 | 0.00 | 70 | 1011.6 |
| 20260505083106 | 56 | 92 | 0.0 | 1.7 | 0.00 | 0.00 | 0.00 | 75 | 1011.9 |
| 20260505082106 | 56 | 98 | 0.9 | 3.5 | 0.00 | 0.00 | 0.00 | 75 | 1011.9 |
| 20260505081050 | 55 | 0.0 | 0.9 | 0.00 | 0.00 | 0.00 | 76 | 1012.2 | |
| 20260505080155 | 54 | 0.0 | 0.9 | 0.00 | 0.00 | 0.00 | 79 | 1012.2 | |
| 20260505075035 | 53 | 0.0 | 0.0 | 0.00 | 0.00 | 0.00 | 81 | 1012.3 | |
| 20260505074100 | 53 | 0.0 | 0.0 | 0.00 | 0.00 | 0.00 | 83 | 1012.6 | |
| 20260505073020 | 53 | 0.0 | 0.0 | 0.00 | 0.00 | 0.00 | 84 | 1012.8 | |
| 20260505072045 | 53 | 278 | 0.0 | 1.7 | 0.00 | 0.00 | 0.00 | 82 | 1012.8 |
| 20260505071109 | 53 | 346 | 0.0 | 0.9 | 0.00 | 0.00 | 0.00 | 82 | 1012.8 |
| 20260505070029 | 53 | 338 | 0.0 | 0.9 | 0.00 | 0.00 | 0.00 | 81 | 1012.9 |
| 20260505065135 | 53 | 0.0 | 0.9 | 0.00 | 0.00 | 0.00 | 83 | 1012.9 | |
| 20260505064120 | 53 | 317 | 0.0 | 0.9 | 0.00 | 0.00 | 0.00 | 82 | 1012.9 |
| 20260505063119 | 53 | 310 | 0.9 | 2.6 | 0.00 | 0.00 | 0.00 | 81 | 1012.9 |
| 20260505062103 | 53 | 309 | 0.9 | 1.7 | 0.00 | 0.00 | 0.00 | 81 | 1012.9 |
| 20260505061104 | 53 | 3 | 0.0 | 0.9 | 0.00 | 0.00 | 0.00 | 80 | 1013.0 |
| 20260505060128 | 53 | 294 | 0.0 | 0.9 | 0.00 | 0.00 | 0.00 | 79 | 1012.8 |
| 20260505055112 | 53 | 350 | 0.0 | 0.9 | 0.00 | 0.00 | 0.00 | 78 | 1012.7 |
| 20260505054033 | 53 | 7 | 0.0 | 1.7 | 0.00 | 0.00 | 0.00 | 77 | 1012.4 |
| 20260505053057 | 53 | 347 | 0.0 | 1.7 | 0.00 | 0.00 | 0.00 | 76 | 1012.3 |
| 20260505052058 | 53 | 337 | 0.9 | 2.6 | 0.00 | 0.00 | 0.00 | 75 | 1012.2 |
| 20260505051042 | 53 | 275 | 0.9 | 3.5 | 0.00 | 0.00 | 0.00 | 74 | 1012.2 |
| 20260505050106 | 53 | 339 | 0.9 | 2.6 | 0.00 | 0.00 | 0.00 | 72 | 1012.0 |
| 20260505041101 | 60 | 50 | 1.7 | 7.0 | 0.00 | 0.00 | 0.00 | 41 | 1011.2 |
| 20260505035047 | 60 | 44 | 2.6 | 7.0 | 0.00 | 0.00 | 0.00 | 39 | 1011.2 |
| 20260505034111 | 60 | 352 | 1.7 | 6.1 | 0.00 | 0.00 | 0.00 | 39 | 1011.3 |
| 20260505033030 | 60 | 46 | 2.6 | 11.3 | 0.00 | 0.00 | 0.00 | 39 | 1011.4 |
| 20260505032055 | 60 | 1 | 1.7 | 5.2 | 0.00 | 0.00 | 0.00 | 38 | 1011.6 |
| 20260505031119 | 61 | 25 | 2.6 | 8.7 | 0.00 | 0.00 | 0.00 | 37 | 1011.7 |
| 20260505030040 | 60 | 71 | 2.6 | 7.8 | 0.00 | 0.00 | 0.00 | 37 | 1011.7 |
| 20260505025104 | 61 | 359 | 0.9 | 7.0 | 0.00 | 0.00 | 0.00 | 37 | 1012.0 |
| 20260505024024 | 61 | 36 | 2.6 | 7.0 | 0.00 | 0.00 | 0.00 | 36 | 1012.0 |
| 20260505023129 | 61 | 110 | 3.5 | 12.2 | 0.00 | 0.00 | 0.00 | 36 | 1012.1 |
| 20260505022113 | 60 | 63 | 2.6 | 7.8 | 0.00 | 0.00 | 0.00 | 36 | 1012.4 |
| 20260505021034 | 60 | 333 | 1.7 | 8.7 | 0.00 | 0.00 | 0.00 | 36 | 1012.5 |
| 20260505020058 | 60 | 28 | 2.6 | 8.7 | 0.00 | 0.00 | 0.00 | 37 | 1012.4 |
| 20260505015058 | 60 | 55 | 3.5 | 9.6 | 0.00 | 0.00 | 0.00 | 36 | 1012.7 |
| 20260505014043 | 60 | 25 | 1.7 | 7.0 | 0.00 | 0.00 | 0.00 | 36 | 1012.8 |
| 20260505013107 | 60 | 3 | 1.7 | 6.1 | 0.00 | 0.00 | 0.00 | 35 | 1013.0 |
| 20260505012028 | 60 | 8 | 2.6 | 7.8 | 0.00 | 0.00 | 0.00 | 35 | 1013.1 |
| 20260505011052 | 60 | 39 | 2.6 | 8.7 | 0.00 | 0.00 | 0.00 | 35 | 1013.0 |
| 20260505010116 | 60 | 31 | 2.6 | 6.1 | 0.00 | 0.00 | 0.00 | 35 | 1013.2 |
| 20260505005037 | 60 | 298 | 1.7 | 7.8 | 0.00 | 0.00 | 0.00 | 35 | 1013.6 |
| 20260505004102 | 60 | 1 | 0.9 | 7.0 | 0.00 | 0.00 | 0.00 | 35 | 1013.9 |
| 20260505003022 | 61 | 22 | 1.7 | 7.8 | 0.00 | 0.00 | 0.00 | 36 | 1013.9 |
| 20260505002046 | 61 | 36 | 1.7 | 7.8 | 0.00 | 0.00 | 0.00 | 36 | 1013.9 |
| 20260505001111 | 61 | 79 | 3.5 | 8.7 | 0.00 | 0.00 | 0.00 | 36 | 1014.2 |
| 20260505000031 | 61 | 358 | 2.6 | 7.8 | 0.00 | 0.00 | 0.00 | 35 | 1014.5 |
| 20260504235057 | 60 | 53 | 1.7 | 7.0 | 0.00 | 0.00 | 0.00 | 37 | 1014.7 |
| 20260504234120 | 60 | 10 | 0.9 | 2.6 | 0.00 | 0.00 | 0.00 | 37 | 1014.9 |
| 20260504233041 | 60 | 62 | 0.9 | 7.0 | 0.00 | 0.00 | 0.00 | 37 | 1014.9 |
| 20260504232105 | 60 | 7 | 0.9 | 5.2 | 0.00 | 0.00 | 0.00 | 37 | 1015.1 |
| 20260504231025 | 60 | 354 | 0.9 | 8.7 | 0.00 | 0.00 | 0.00 | 38 | 1015.2 |
| 20260504230050 | 60 | 12 | 1.7 | 6.1 | 0.00 | 0.00 | 0.00 | 38 | 1015.2 |
| 20260504225154 | 60 | 359 | 1.7 | 5.2 | 0.00 | 0.00 | 0.00 | 39 | 1015.4 |
| 20260504224034 | 59 | 41 | 0.9 | 2.6 | 0.00 | 0.00 | 0.00 | 39 | 1015.3 |
| 20260504223139 | 60 | 10 | 0.9 | 5.2 | 0.00 | 0.00 | 0.00 | 39 | 1015.3 |
| 20260504222019 | 59 | 19 | 1.7 | 6.1 | 0.00 | 0.00 | 0.00 | 39 | 1015.4 |
| 20260504221043 | 59 | 59 | 1.7 | 7.0 | 0.00 | 0.00 | 0.00 | 39 | 1015.4 |
| 20260504220108 | 59 | 45 | 0.9 | 2.6 | 0.00 | 0.00 | 0.00 | 40 | 1015.4 |
| 20260504215029 | 59 | 7 | 0.9 | 3.5 | 0.00 | 0.00 | 0.00 | 40 | 1015.5 |
| 20260504214053 | 60 | 89 | 1.7 | 5.2 | 0.00 | 0.00 | 0.00 | 39 | 1015.5 |
| 20260504213117 | 60 | 64 | 2.6 | 7.0 | 0.00 | 0.00 | 0.00 | 38 | 1015.6 |
| 20260504212117 | 61 | 117 | 2.6 | 9.6 | 0.00 | 0.00 | 0.00 | 37 | 1015.7 |
| 20260504211102 | 61 | 140 | 2.6 | 11.3 | 0.00 | 0.00 | 0.00 | 37 | 1015.8 |
| 20260504210022 | 61 | 118 | 2.6 | 8.7 | 0.00 | 0.00 | 0.00 | 38 | 1015.8 |
| 20260504205127 | 61 | 129 | 3.5 | 9.6 | 0.00 | 0.00 | 0.00 | 38 | 1015.7 |
| 20260504204111 | 61 | 94 | 2.6 | 5.2 | 0.00 | 0.00 | 0.00 | 38 | 1015.9 |
| 20260504203032 | 61 | 119 | 1.7 | 7.0 | 0.00 | 0.00 | 0.00 | 38 | 1016.0 |
| 20260504202056 | 62 | 80 | 2.6 | 5.2 | 0.00 | 0.00 | 0.00 | 37 | 1016.1 |
| 20260504201027 | 62 | 99 | 0.9 | 2.6 | 0.00 | 0.00 | 0.00 | 38 | 1015.9 |
| 20260504200041 | 62 | 96 | 1.7 | 5.2 | 0.00 | 0.00 | 0.00 | 38 | 1015.8 |
| 20260504195105 | 62 | 95 | 1.7 | 6.1 | 0.00 | 0.00 | 0.00 | 38 | 1015.7 |
| 20260504194106 | 62 | 62 | 0.9 | 3.5 | 0.00 | 0.00 | 0.00 | 38 | 1015.6 |
| 20260504193050 | 63 | 144 | 1.7 | 7.0 | 0.00 | 0.00 | 0.00 | 37 | 1015.5 |
| 20260504192155 | 63 | 70 | 0.9 | 5.2 | 0.00 | 0.00 | 0.00 | 37 | 1015.5 |